Tracking 30923 objects as of 1-Jul-2025
HD Live streaming from Space Station
objects crossing your sky now

STARLINK-2465

Track STARLINK-2465 now!
10-day predictions
STARLINK-2465 is classified as:


NORAD ID: 48124
Int'l Code: 2021-027AJ
Perigee: 553.6 km
Apogee: 555.1 km
Inclination: 53.1 °
Period: 95.6 minutes
Semi major axis: 6925 km
RCS: Unknown
Launch date: April 7, 2021
Source: United States (US)
Launch site: AIR FORCE EASTERN TEST RANGE (AFETR)
Your satellite tracking list
LEMUR 2 ZUPANSKI
Track 1 satellite(s)




NASA's NSSDC Master Catalog

Two Line Element Set (TLE):
1 48124U 21027AJ  25181.39917773  .00001011  00000-0  86777-4 0  9996
2 48124  53.0545 214.1961 0001068  91.5591 268.5521 15.06396918234525
Source of the keplerian elements: AFSPC